Time,TemperatureF,DewpointF,PressureIn,WindDirection,WindDirectionDegrees,WindSpeedMPH,WindSpeedGustMPH,Humidity,HourlyPrecipIn,Conditions,Clouds,dailyrainin,SoftwareType,DateUTC
2014-01-06 00:02:00,-1.1,-12.3,30.47,West,273,7.0,11.0,58,0.00,,SKC,0.00,VWS V12.07,2014-01-06 06:02:00,
2014-01-06 00:10:00,-1.4,-11.9,30.47,WNW,298,9.0,16.0,60,0.00,,SKC,0.00,VWS V12.07,2014-01-06 06:10:00,
2014-01-06 00:16:00,-1.5,-12.0,30.48,NW,316,7.0,16.0,60,0.00,,SKC,0.00,VWS V12.07,2014-01-06 06:16:00,
2014-01-06 00:21:00,-1.8,-11.9,30.48,NW,305,3.0,16.0,61,0.00,,SKC,0.00,VWS V12.07,2014-01-06 06:21:00,
2014-01-06 00:27:00,-2.1,-12.2,30.48,WNW,293,5.0,16.0,61,0.00,,SKC,0.00,VWS V12.07,2014-01-06 06:27:00,
2014-01-06 00:33:00,-2.4,-12.5,30.48,NW,309,9.0,16.0,61,0.00,,SKC,0.00,VWS V12.07,2014-01-06 06:33:00,
2014-01-06 00:40:00,-2.7,-12.5,30.48,WNW,295,6.0,16.0,62,0.00,,SKC,0.00,VWS V12.07,2014-01-06 06:40:00,
2014-01-06 00:46:00,-3.0,-12.8,30.48,NNW,330,7.0,16.0,62,0.00,,SKC,0.00,VWS V12.07,2014-01-06 06:46:00,
2014-01-06 00:52:00,-3.3,-13.1,30.48,WNW,294,6.0,16.0,62,0.00,,SKC,0.00,VWS V12.07,2014-01-06 06:52:00,
2014-01-06 00:58:00,-3.5,-12.9,30.49,NNW,327,5.0,16.0,63,0.00,,SKC,0.00,VWS V12.07,2014-01-06 06:58:00,
2014-01-06 01:04:00,-3.7,-13.4,30.49,WNW,284,13.0,15.0,62,0.00,,SKC,0.00,VWS V12.07,2014-01-06 07:04:00,
2014-01-06 01:10:00,-3.9,-13.3,30.49,NW,316,8.0,15.0,63,0.00,,SKC,0.00,VWS V12.07,2014-01-06 07:10:00,
2014-01-06 01:16:00,-4.1,-13.5,30.49,WNW,283,5.0,15.0,63,0.00,,SKC,0.00,VWS V12.07,2014-01-06 07:16:00,
2014-01-06 01:22:00,-4.3,-13.7,30.49,WNW,284,6.0,15.0,63,0.00,,SKC,0.00,VWS V12.07,2014-01-06 07:22:00,
2014-01-06 01:28:00,-4.5,-13.9,30.49,WSW,243,6.0,15.0,63,0.00,,SKC,0.00,VWS V12.07,2014-01-06 07:28:00,
2014-01-06 01:34:00,-4.7,-13.8,30.50,WNW,294,5.0,8.0,64,0.00,,SKC,0.00,VWS V12.07,2014-01-06 07:34:00,
2014-01-06 01:40:00,-4.8,-13.9,30.50,WNW,302,5.0,10.0,64,0.00,,SKC,0.00,VWS V12.07,2014-01-06 07:40:00,
2014-01-06 01:46:00,-5.1,-14.1,30.50,WNW,288,13.0,14.0,64,0.00,,SKC,0.00,VWS V12.07,2014-01-06 07:46:00,
2014-01-06 01:52:00,-5.2,-13.9,30.50,WNW,289,7.0,14.0,65,0.00,,SKC,0.00,VWS V12.07,2014-01-06 07:52:00,
2014-01-06 01:58:00,-5.3,-14.0,30.50,WNW,303,7.0,14.0,65,0.00,,SKC,0.00,VWS V12.07,2014-01-06 07:58:00,
2014-01-06 02:04:00,-5.4,-14.1,30.51,WNW,288,2.0,10.0,65,0.00,,SKC,0.00,VWS V12.07,2014-01-06 08:04:00,
2014-01-06 02:10:00,-5.4,-14.4,30.51,WNW,295,5.0,13.0,64,0.00,,SKC,0.00,VWS V12.07,2014-01-06 08:10:00,
2014-01-06 02:16:00,-5.3,-15.0,30.51,WNW,285,9.0,16.0,62,0.00,,SKC,0.00,VWS V12.07,2014-01-06 08:16:00,
2014-01-06 02:22:00,-5.5,-15.1,30.51,WNW,301,6.0,16.0,62,0.00,,SKC,0.00,VWS V12.07,2014-01-06 08:22:00,
2014-01-06 02:28:00,-5.7,-15.7,30.52,WNW,285,5.0,16.0,61,0.00,,SKC,0.00,VWS V12.07,2014-01-06 08:28:00,
2014-01-06 02:34:00,-5.9,-15.9,30.52,NNE,27,3.0,13.0,61,0.00,,SKC,0.00,VWS V12.07,2014-01-06 08:34:00,
2014-01-06 02:40:00,-6.1,-16.0,30.51,WNW,295,11.0,13.0,61,0.00,,SKC,0.00,VWS V12.07,2014-01-06 08:40:00,
2014-01-06 02:46:00,-6.3,-15.9,30.52,WNW,299,4.0,13.0,62,0.00,,SKC,0.00,VWS V12.07,2014-01-06 08:46:00,
2014-01-06 02:52:00,-6.6,-15.9,30.52,NW,307,1.0,13.0,63,0.00,,SKC,0.00,VWS V12.07,2014-01-06 08:52:00,
2014-01-06 02:58:00,-6.8,-16.1,30.52,WNW,301,3.0,13.0,63,0.00,,SKC,0.00,VWS V12.07,2014-01-06 08:58:00,
2014-01-06 03:04:00,-7.0,-16.3,30.52,WNW,297,6.0,8.0,63,0.00,,SKC,0.00,VWS V12.07,2014-01-06 09:04:00,
2014-01-06 03:10:00,-7.1,-16.0,30.52,WNW,302,3.0,11.0,64,0.00,,SKC,0.00,VWS V12.07,2014-01-06 09:10:00,
2014-01-06 03:16:00,-7.2,-16.1,30.52,WNW,287,5.0,11.0,64,0.00,,SKC,0.00,VWS V12.07,2014-01-06 09:16:00,
2014-01-06 03:22:00,-7.3,-16.2,30.52,WNW,298,3.0,11.0,64,0.00,,SKC,0.00,VWS V12.07,2014-01-06 09:22:00,
2014-01-06 03:28:00,-7.5,-16.1,30.52,WNW,294,4.0,11.0,65,0.00,,SKC,0.00,VWS V12.07,2014-01-06 09:28:00,
2014-01-06 03:34:00,-7.6,-16.5,30.52,WNW,294,7.0,8.0,64,0.00,,SKC,0.00,VWS V12.07,2014-01-06 09:34:00,
2014-01-06 03:40:00,-7.8,-16.4,30.52,WNW,302,4.0,8.0,65,0.00,,SKC,0.00,VWS V12.07,2014-01-06 09:40:00,
2014-01-06 03:46:00,-7.9,-16.5,30.53,WNW,285,4.0,8.0,65,0.00,,SKC,0.00,VWS V12.07,2014-01-06 09:46:00,
2014-01-06 03:52:00,-7.9,-16.5,30.53,NNW,340,6.0,11.0,65,0.00,,SKC,0.00,VWS V12.07,2014-01-06 09:52:00,
2014-01-06 03:58:00,-8.0,-16.6,30.52,WNW,293,7.0,12.0,65,0.00,,SKC,0.00,VWS V12.07,2014-01-06 09:58:00,
2014-01-06 04:04:00,-8.0,-16.6,30.53,WNW,302,5.0,7.0,65,0.00,,SKC,0.00,VWS V12.07,2014-01-06 10:04:00,
2014-01-06 04:10:00,-8.0,-16.6,30.53,WNW,300,5.0,12.0,65,0.00,,SKC,0.00,VWS V12.07,2014-01-06 10:10:00,
2014-01-06 04:16:00,-8.0,-16.6,30.53,WNW,297,6.0,12.0,65,0.00,,SKC,0.00,VWS V12.07,2014-01-06 10:16:00,
2014-01-06 04:22:00,-8.1,-16.4,30.53,WNW,284,6.0,12.0,66,0.00,,SKC,0.00,VWS V12.07,2014-01-06 10:22:00,
2014-01-06 04:28:00,-8.2,-16.2,30.53,WNW,290,5.0,12.0,67,0.00,,SKC,0.00,VWS V12.07,2014-01-06 10:28:00,
2014-01-06 04:34:00,-8.3,-16.3,30.53,WNW,291,7.0,8.0,67,0.00,,SKC,0.00,VWS V12.07,2014-01-06 10:34:00,
2014-01-06 04:40:00,-8.4,-16.4,30.53,WNW,293,7.0,11.0,67,0.00,,SKC,0.00,VWS V12.07,2014-01-06 10:40:00,
2014-01-06 04:46:00,-8.4,-16.7,30.53,WNW,293,8.0,16.0,66,0.00,,SKC,0.00,VWS V12.07,2014-01-06 10:46:00,
2014-01-06 04:52:00,-8.5,-16.8,30.54,West,278,4.0,16.0,66,0.00,,SKC,0.00,VWS V12.07,2014-01-06 10:52:00,
2014-01-06 04:58:00,-8.7,-17.0,30.54,WNW,283,3.0,16.0,66,0.00,,SKC,0.00,VWS V12.07,2014-01-06 10:58:00,
2014-01-06 05:04:00,-8.8,-17.4,30.54,WNW,284,12.0,14.0,65,0.00,,SKC,0.00,VWS V12.07,2014-01-06 11:04:00,
2014-01-06 05:10:00,-9.0,-17.9,30.54,WNW,288,12.0,18.0,64,0.00,,SKC,0.00,VWS V12.07,2014-01-06 11:10:00,
2014-01-06 05:16:00,-9.1,-18.3,30.54,WNW,299,7.0,18.0,63,0.00,,SKC,0.00,VWS V12.07,2014-01-06 11:16:00,
2014-01-06 05:22:00,-9.3,-18.5,30.54,WNW,291,8.0,18.0,63,0.00,,SKC,0.00,VWS V12.07,2014-01-06 11:22:00,
2014-01-06 05:28:00,-9.4,-18.5,30.54,West,280,9.0,18.0,63,0.00,,SKC,0.00,VWS V12.07,2014-01-06 11:28:00,
2014-01-06 05:34:00,-9.4,-18.5,30.54,WNW,286,6.0,11.0,63,0.00,,SKC,0.00,VWS V12.07,2014-01-06 11:34:00,
2014-01-06 05:40:00,-9.6,-18.7,30.54,WNW,298,10.0,11.0,63,0.00,,SKC,0.00,VWS V12.07,2014-01-06 11:40:00,
2014-01-06 05:46:00,-9.7,-18.8,30.54,WNW,290,5.0,14.0,63,0.00,,SKC,0.00,VWS V12.07,2014-01-06 11:46:00,
2014-01-06 05:52:00,-9.8,-18.9,30.54,WNW,295,4.0,14.0,63,0.00,,SKC,0.00,VWS V12.07,2014-01-06 11:52:00,
2014-01-06 05:58:00,-9.8,-18.9,30.54,WNW,284,7.0,17.0,63,0.00,,SKC,0.00,VWS V12.07,2014-01-06 11:58:00,
2014-01-06 06:04:00,-9.9,-19.0,30.54,WNW,299,2.0,12.0,63,0.00,,SKC,0.00,VWS V12.07,2014-01-06 12:04:00,
2014-01-06 06:10:00,-10.0,-19.1,30.54,NW,313,3.0,12.0,63,0.00,,SKC,0.00,VWS V12.07,2014-01-06 12:10:00,
2014-01-06 06:16:00,-10.1,-18.9,30.55,West,281,5.0,12.0,64,0.00,,SKC,0.00,VWS V12.07,2014-01-06 12:16:00,
2014-01-06 06:22:00,-10.2,-19.0,30.55,WNW,286,6.0,12.0,64,0.00,,SKC,0.00,VWS V12.07,2014-01-06 12:22:00,
2014-01-06 06:28:00,-10.3,-18.8,30.55,WNW,293,7.0,12.0,65,0.00,,SKC,0.00,VWS V12.07,2014-01-06 12:28:00,
2014-01-06 06:34:00,-10.4,-18.9,30.55,WNW,283,7.0,9.0,65,0.00,,SKC,0.00,VWS V12.07,2014-01-06 12:34:00,
2014-01-06 06:40:00,-10.4,-18.9,30.55,WNW,295,6.0,11.0,65,0.00,,SKC,0.00,VWS V12.07,2014-01-06 12:40:00,
2014-01-06 06:46:00,-10.6,-18.8,30.56,WNW,283,5.0,11.0,66,0.00,,SKC,0.00,VWS V12.07,2014-01-06 12:46:00,
2014-01-06 06:52:00,-10.6,-18.8,30.55,WNW,289,6.0,12.0,66,0.00,,SKC,0.00,VWS V12.07,2014-01-06 12:52:00,
2014-01-06 06:58:00,-10.8,-19.0,30.56,NW,311,5.0,12.0,66,0.00,,SKC,0.00,VWS V12.07,2014-01-06 12:58:00,
2014-01-06 07:04:00,-10.8,-19.0,30.56,WNW,289,6.0,9.0,66,0.00,,SKC,0.00,VWS V12.07,2014-01-06 13:04:00,
2014-01-06 07:10:00,-10.9,-18.8,30.56,West,280,2.0,11.0,67,0.00,,SKC,0.00,VWS V12.07,2014-01-06 13:10:00,
2014-01-06 07:16:00,-11.1,-19.0,30.56,WNW,285,5.0,11.0,67,0.00,,SKC,0.00,VWS V12.07,2014-01-06 13:16:00,
2014-01-06 07:22:00,-11.1,-19.0,30.56,SW,222,5.0,11.0,67,0.00,,SKC,0.00,VWS V12.07,2014-01-06 13:22:00,
2014-01-06 07:28:00,-11.3,-18.9,30.56,WNW,301,4.0,11.0,68,0.00,,SKC,0.00,VWS V12.07,2014-01-06 13:28:00,
2014-01-06 07:34:00,-11.3,-18.9,30.57,West,271,2.0,6.0,68,0.00,,SKC,0.00,VWS V12.07,2014-01-06 13:34:00,
2014-01-06 07:40:00,-11.2,-18.8,30.57,WNW,285,5.0,9.0,68,0.00,,SKC,0.00,VWS V12.07,2014-01-06 13:40:00,
2014-01-06 07:46:00,-11.1,-18.7,30.57,WNW,300,2.0,9.0,68,0.00,,SKC,0.00,VWS V12.07,2014-01-06 13:46:00,
2014-01-06 07:52:00,-10.9,-18.8,30.57,WNW,287,2.0,9.0,67,0.00,,SKC,0.00,VWS V12.07,2014-01-06 13:52:00,
2014-01-06 07:58:00,-10.8,-18.7,30.58,WNW,288,8.0,9.0,67,0.00,,SKC,0.00,VWS V12.07,2014-01-06 13:58:00,
2014-01-06 08:04:00,-10.6,-18.8,30.58,WNW,297,5.0,9.0,66,0.00,,SKC,0.00,VWS V12.07,2014-01-06 14:04:00,
2014-01-06 08:10:00,-10.5,-18.7,30.58,West,263,4.0,9.0,66,0.00,,SKC,0.00,VWS V12.07,2014-01-06 14:10:00,
2014-01-06 08:16:00,-10.5,-18.7,30.58,West,281,6.0,9.0,66,0.00,,SKC,0.00,VWS V12.07,2014-01-06 14:16:00,
2014-01-06 08:22:00,-10.2,-18.4,30.58,WNW,289,6.0,11.0,66,0.00,,SKC,0.00,VWS V12.07,2014-01-06 14:22:00,
2014-01-06 08:28:00,-10.0,-18.5,30.58,West,262,7.0,11.0,65,0.00,,SKC,0.00,VWS V12.07,2014-01-06 14:28:00,
2014-01-06 08:34:00,-9.7,-18.2,30.58,WSW,256,5.0,8.0,65,0.00,,SKC,0.00,VWS V12.07,2014-01-06 14:34:00,
2014-01-06 08:40:00,-9.5,-18.0,30.59,WNW,286,4.0,11.0,65,0.00,,SKC,0.00,VWS V12.07,2014-01-06 14:40:00,
2014-01-06 08:46:00,-9.2,-17.8,30.59,WNW,293,3.0,11.0,65,0.00,,SKC,0.00,VWS V12.07,2014-01-06 14:46:00,
2014-01-06 08:52:00,-9.0,-17.9,30.59,WNW,297,6.0,11.0,64,0.00,,SKC,0.00,VWS V12.07,2014-01-06 14:52:00,
2014-01-06 08:58:00,-8.9,-18.1,30.59,WNW,301,7.0,12.0,63,0.00,,SKC,0.00,VWS V12.07,2014-01-06 14:58:00,
2014-01-06 09:04:00,-8.7,-17.9,30.59,WNW,299,4.0,13.0,63,0.00,,SKC,0.00,VWS V12.07,2014-01-06 15:04:00,
2014-01-06 09:10:00,-8.6,-17.8,30.59,WNW,300,14.0,15.0,63,0.00,,SKC,0.00,VWS V12.07,2014-01-06 15:10:00,
2014-01-06 09:16:00,-8.4,-17.9,30.59,WNW,293,15.0,17.0,62,0.00,,SKC,0.00,VWS V12.07,2014-01-06 15:16:00,
2014-01-06 09:22:00,-8.2,-17.7,30.59,WNW,303,6.0,18.0,62,0.00,,SKC,0.00,VWS V12.07,2014-01-06 15:22:00,
2014-01-06 09:28:00,-8.0,-17.5,30.59,WNW,300,7.0,18.0,62,0.00,,SKC,0.00,VWS V12.07,2014-01-06 15:28:00,
2014-01-06 09:34:00,-7.7,-17.2,30.59,WNW,288,10.0,16.0,62,0.00,,SKC,0.00,VWS V12.07,2014-01-06 15:34:00,
2014-01-06 09:40:00,-7.7,-17.6,30.60,WNW,291,10.0,17.0,61,0.00,,SKC,0.00,VWS V12.07,2014-01-06 15:40:00,
2014-01-06 09:46:00,-7.5,-17.4,30.59,West,271,7.0,17.0,61,0.00,,SKC,0.00,VWS V12.07,2014-01-06 15:46:00,
2014-01-06 09:52:00,-7.3,-17.2,30.59,WNW,290,8.0,18.0,61,0.00,,SKC,0.00,VWS V12.07,2014-01-06 15:52:00,
2014-01-06 09:58:00,-7.0,-16.9,30.59,WNW,288,18.0,18.0,61,0.00,,SKC,0.00,VWS V12.07,2014-01-06 15:58:00,
2014-01-06 10:04:00,-7.2,-17.1,30.59,NW,309,11.0,14.0,61,0.00,,SKC,0.00,VWS V12.07,2014-01-06 16:04:00,
2014-01-06 10:10:00,-7.1,-17.3,30.59,WNW,291,15.0,20.0,60,0.00,,SKC,0.00,VWS V12.07,2014-01-06 16:10:00,
2014-01-06 10:16:00,-6.9,-16.8,30.59,WNW,292,18.0,20.0,61,0.00,,SKC,0.00,VWS V12.07,2014-01-06 16:16:00,
2014-01-06 10:22:00,-6.7,-16.6,30.58,West,278,5.0,20.0,61,0.00,,SKC,0.00,VWS V12.07,2014-01-06 16:22:00,
2014-01-06 10:28:00,-6.7,-16.9,30.58,WNW,290,12.0,20.0,60,0.00,,SKC,0.00,VWS V12.07,2014-01-06 16:28:00,
2014-01-06 10:34:00,-6.3,-16.5,30.58,West,273,11.0,14.0,60,0.00,,SKC,0.00,VWS V12.07,2014-01-06 16:34:00,
2014-01-06 10:40:00,-6.3,-16.9,30.58,West,277,13.0,19.0,59,0.00,,SKC,0.00,VWS V12.07,2014-01-06 16:40:00,
2014-01-06 10:46:00,-6.2,-16.8,30.58,WNW,285,13.0,19.0,59,0.00,,SKC,0.00,VWS V12.07,2014-01-06 16:46:00,
2014-01-06 10:52:00,-6.0,-16.3,30.58,West,281,8.0,19.0,60,0.00,,SKC,0.00,VWS V12.07,2014-01-06 16:52:00,
2014-01-06 10:58:00,-6.1,-16.7,30.58,WNW,285,7.0,20.0,59,0.00,,SKC,0.00,VWS V12.07,2014-01-06 16:58:00,
2014-01-06 11:04:00,-5.9,-16.5,30.58,WNW,290,11.0,20.0,59,0.00,,SKC,0.00,VWS V12.07,2014-01-06 17:04:00,
2014-01-06 11:10:00,-5.9,-16.5,30.57,WNW,299,14.0,20.0,59,0.00,,SKC,0.00,VWS V12.07,2014-01-06 17:10:00,
2014-01-06 11:16:00,-5.6,-16.2,30.57,WNW,294,3.0,20.0,59,0.00,,SKC,0.00,VWS V12.07,2014-01-06 17:16:00,
2014-01-06 11:22:00,-5.2,-15.8,30.58,West,276,13.0,20.0,59,0.00,,SKC,0.00,VWS V12.07,2014-01-06 17:22:00,
2014-01-06 11:28:00,-5.2,-16.2,30.57,WNW,291,14.0,21.0,58,0.00,,SKC,0.00,VWS V12.07,2014-01-06 17:28:00,
2014-01-06 11:34:00,-5.3,-15.9,30.57,WNW,287,7.0,17.0,59,0.00,,SKC,0.00,VWS V12.07,2014-01-06 17:34:00,
2014-01-06 11:40:00,-5.4,-16.4,30.57,WSW,256,6.0,18.0,58,0.00,,SKC,0.00,VWS V12.07,2014-01-06 17:40:00,
2014-01-06 11:46:00,-5.2,-15.8,30.57,SSW,203,9.0,19.0,59,0.00,,SKC,0.00,VWS V12.07,2014-01-06 17:46:00,
2014-01-06 11:52:00,-4.9,-15.2,30.56,WNW,295,5.0,19.0,60,0.00,,SKC,0.00,VWS V12.07,2014-01-06 17:52:00,
2014-01-06 11:58:00,-4.3,-14.6,30.56,WNW,299,14.0,19.0,60,0.00,,SKC,0.00,VWS V12.07,2014-01-06 17:58:00,
2014-01-06 12:04:00,-4.6,-15.3,30.56,WNW,302,6.0,18.0,59,0.00,,SKC,0.00,VWS V12.07,2014-01-06 18:04:00,
2014-01-06 12:10:00,-4.8,-15.8,30.56,West,266,15.0,18.0,58,0.00,,SKC,0.00,VWS V12.07,2014-01-06 18:10:00,
2014-01-06 12:17:00,-4.9,-15.6,30.56,WNW,294,8.0,19.0,59,0.00,,SKC,0.00,VWS V12.07,2014-01-06 18:17:00,
2014-01-06 12:22:00,-4.6,-14.9,30.56,West,277,14.0,19.0,60,0.00,,SKC,0.00,VWS V12.07,2014-01-06 18:22:00,
2014-01-06 12:28:00,-4.7,-15.4,30.55,NW,322,11.0,20.0,59,0.00,,SKC,0.00,VWS V12.07,2014-01-06 18:28:00,
2014-01-06 12:35:00,-4.5,-15.2,30.56,WNW,295,16.0,21.0,59,0.00,,SKC,0.00,VWS V12.07,2014-01-06 18:35:00,
2014-01-06 12:40:00,-4.4,-15.4,30.55,WNW,293,8.0,21.0,58,0.00,,SKC,0.00,VWS V12.07,2014-01-06 18:40:00,
2014-01-06 12:46:00,-4.3,-15.3,30.55,WNW,283,10.0,21.0,58,0.00,,SKC,0.00,VWS V12.07,2014-01-06 18:46:00,
2014-01-06 12:52:00,-4.0,-14.7,30.55,West,259,8.0,21.0,59,0.00,,SKC,0.00,VWS V12.07,2014-01-06 18:52:00,
2014-01-06 12:58:00,-3.7,-15.1,30.55,WNW,284,7.0,21.0,57,0.00,,SKC,0.00,VWS V12.07,2014-01-06 18:58:00,
2014-01-06 13:04:00,-3.8,-15.2,30.55,WNW,300,14.0,16.0,57,0.00,,SKC,0.00,VWS V12.07,2014-01-06 19:04:00,
2014-01-06 13:10:00,-3.8,-15.2,30.54,WNW,299,9.0,18.0,57,0.00,,SKC,0.00,VWS V12.07,2014-01-06 19:10:00,
2014-01-06 13:16:00,-3.7,-14.8,30.54,WNW,282,12.0,18.0,58,0.00,,SKC,0.00,VWS V12.07,2014-01-06 19:16:00,
2014-01-06 13:22:00,-3.6,-14.3,30.54,WNW,290,8.0,18.0,59,0.00,,SKC,0.00,VWS V12.07,2014-01-06 19:22:00,
2014-01-06 13:28:00,-3.0,-13.8,30.55,WSW,239,4.0,18.0,59,0.00,,SKC,0.00,VWS V12.07,2014-01-06 19:28:00,
2014-01-06 13:34:00,-2.6,-13.4,30.55,West,275,3.0,13.0,59,0.00,,SKC,0.00,VWS V12.07,2014-01-06 19:34:00,
2014-01-06 13:41:00,-2.7,-13.8,30.55,WNW,298,6.0,15.0,58,0.00,,SKC,0.00,VWS V12.07,2014-01-06 19:41:00,
2014-01-06 13:46:00,-2.6,-13.4,30.55,NW,311,11.0,15.0,59,0.00,,SKC,0.00,VWS V12.07,2014-01-06 19:46:00,
2014-01-06 13:52:00,-3.0,-14.4,30.55,West,263,3.0,20.0,57,0.00,,SKC,0.00,VWS V12.07,2014-01-06 19:52:00,
2014-01-06 13:58:00,-2.7,-13.8,30.55,WNW,288,9.0,20.0,58,0.00,,SKC,0.00,VWS V12.07,2014-01-06 19:58:00,
2014-01-06 14:05:00,-2.4,-13.9,30.55,West,259,6.0,16.0,57,0.00,,SKC,0.00,VWS V12.07,2014-01-06 20:05:00,
2014-01-06 14:10:00,-2.4,-13.9,30.56,SSW,210,8.0,16.0,57,0.00,,SKC,0.00,VWS V12.07,2014-01-06 20:10:00,
2014-01-06 14:16:00,-2.4,-13.9,30.55,WNW,296,5.0,16.0,57,0.00,,SKC,0.00,VWS V12.07,2014-01-06 20:16:00,
2014-01-06 14:23:00,-2.3,-13.8,30.55,West,274,5.0,17.0,57,0.00,,SKC,0.00,VWS V12.07,2014-01-06 20:23:00,
2014-01-06 14:28:00,-2.3,-13.8,30.56,WNW,284,14.0,21.0,57,0.00,,SKC,0.00,VWS V12.07,2014-01-06 20:28:00,
2014-01-06 14:35:00,-2.3,-13.8,30.56,WSW,243,9.0,14.0,57,0.00,,SKC,0.00,VWS V12.07,2014-01-06 20:35:00,
2014-01-06 14:40:00,-2.2,-13.7,30.56,WNW,290,6.0,18.0,57,0.00,,SKC,0.00,VWS V12.07,2014-01-06 20:40:00,
2014-01-06 14:46:00,-1.9,-13.4,30.56,NW,311,8.0,18.0,57,0.00,,SKC,0.00,VWS V12.07,2014-01-06 20:46:00,
2014-01-06 14:52:00,-1.9,-13.4,30.56,WNW,299,6.0,20.0,57,0.00,,SKC,0.00,VWS V12.07,2014-01-06 20:52:00,
2014-01-06 14:58:00,-1.6,-13.1,30.56,WSW,256,2.0,20.0,57,0.00,,SKC,0.00,VWS V12.07,2014-01-06 20:58:00,
2014-01-06 15:04:00,-1.6,-13.5,30.56,West,259,7.0,16.0,56,0.00,,SKC,0.00,VWS V12.07,2014-01-06 21:04:00,
2014-01-06 15:10:00,-1.7,-13.6,30.56,WNW,300,5.0,17.0,56,0.00,,SKC,0.00,VWS V12.07,2014-01-06 21:10:00,
2014-01-06 15:16:00,-1.8,-13.7,30.56,WSW,252,13.0,19.0,56,0.00,,SKC,0.00,VWS V12.07,2014-01-06 21:16:00,
2014-01-06 15:22:00,-1.8,-13.3,30.56,West,266,5.0,19.0,57,0.00,,SKC,0.00,VWS V12.07,2014-01-06 21:22:00,
2014-01-06 15:29:00,-2.0,-13.8,30.57,SW,231,12.0,19.0,56,0.00,,SKC,0.00,VWS V12.07,2014-01-06 21:29:00,
2014-01-06 15:34:00,-2.0,-13.8,30.57,West,262,5.0,14.0,56,0.00,,SKC,0.00,VWS V12.07,2014-01-06 21:34:00,
2014-01-06 15:41:00,-1.9,-13.4,30.57,NW,316,9.0,14.0,57,0.00,,SKC,0.00,VWS V12.07,2014-01-06 21:41:00,
2014-01-06 15:47:00,-2.0,-13.8,30.57,WSW,249,8.0,19.0,56,0.00,,SKC,0.00,VWS V12.07,2014-01-06 21:47:00,
2014-01-06 15:53:00,-2.1,-13.6,30.57,NW,311,6.0,19.0,57,0.00,,SKC,0.00,VWS V12.07,2014-01-06 21:53:00,
2014-01-06 15:59:00,-2.1,-13.9,30.57,WSW,248,8.0,19.0,56,0.00,,SKC,0.00,VWS V12.07,2014-01-06 21:59:00,
2014-01-06 16:04:00,-2.1,-13.9,30.57,WSW,256,3.0,16.0,56,0.00,,SKC,0.00,VWS V12.07,2014-01-06 22:04:00,
2014-01-06 16:10:00,-2.0,-13.5,30.57,WNW,284,8.0,16.0,57,0.00,,SKC,0.00,VWS V12.07,2014-01-06 22:10:00,
2014-01-06 16:17:00,-2.2,-13.7,30.57,WNW,294,12.0,19.0,57,0.00,,SKC,0.00,VWS V12.07,2014-01-06 22:17:00,
2014-01-06 16:23:00,-2.3,-13.8,30.57,West,277,2.0,19.0,57,0.00,,SKC,0.00,VWS V12.07,2014-01-06 22:23:00,
2014-01-06 16:28:00,-2.3,-13.4,30.57,WNW,298,5.0,19.0,58,0.00,,SKC,0.00,VWS V12.07,2014-01-06 22:28:00,
2014-01-06 16:35:00,-2.4,-13.5,30.57,WSW,256,7.0,12.0,58,0.00,,SKC,0.00,VWS V12.07,2014-01-06 22:35:00,
2014-01-06 16:41:00,-2.6,-13.7,30.57,SW,229,2.0,13.0,58,0.00,,SKC,0.00,VWS V12.07,2014-01-06 22:41:00,
2014-01-06 16:46:00,-2.7,-13.5,30.57,WNW,284,5.0,13.0,59,0.00,,SKC,0.00,VWS V12.07,2014-01-06 22:46:00,
2014-01-06 16:53:00,-3.0,-13.8,30.56,NW,307,6.0,13.0,59,0.00,,SKC,0.00,VWS V12.07,2014-01-06 22:53:00,
2014-01-06 16:59:00,-3.2,-13.9,30.56,WSW,246,8.0,13.0,59,0.00,,SKC,0.00,VWS V12.07,2014-01-06 22:59:00,
2014-01-06 17:04:00,-3.2,-13.9,30.56,WNW,291,8.0,9.0,59,0.00,,SKC,0.00,VWS V12.07,2014-01-06 23:04:00,
2014-01-06 17:10:00,-3.4,-13.8,30.56,WNW,282,4.0,9.0,60,0.00,,SKC,0.00,VWS V12.07,2014-01-06 23:10:00,
2014-01-06 17:16:00,-3.5,-13.9,30.56,West,277,5.0,9.0,60,0.00,,SKC,0.00,VWS V12.07,2014-01-06 23:16:00,
2014-01-06 17:23:00,-3.7,-13.8,30.56,West,267,2.0,9.0,61,0.00,,SKC,0.00,VWS V12.07,2014-01-06 23:23:00,
2014-01-06 17:29:00,-3.8,-13.9,30.57,WSW,250,2.0,9.0,61,0.00,,SKC,0.00,VWS V12.07,2014-01-06 23:29:00,
2014-01-06 17:35:00,-4.0,-13.7,30.57,WSW,252,0.0,5.0,62,0.00,,SKC,0.00,VWS V12.07,2014-01-06 23:35:00,
2014-01-06 17:41:00,-4.2,-13.9,30.57,WSW,250,0.0,6.0,62,0.00,,SKC,0.00,VWS V12.07,2014-01-06 23:41:00,
2014-01-06 17:47:00,-4.4,-14.1,30.57,WNW,302,1.0,8.0,62,0.00,,SKC,0.00,VWS V12.07,2014-01-06 23:47:00,
2014-01-06 17:52:00,-4.4,-13.8,30.57,West,269,0.0,8.0,63,0.00,,SKC,0.00,VWS V12.07,2014-01-06 23:52:00,
2014-01-06 17:59:00,-4.5,-13.9,30.57,WNW,290,2.0,8.0,63,0.00,,SKC,0.00,VWS V12.07,2014-01-06 23:59:00,
2014-01-06 18:04:00,-4.6,-14.0,30.57,West,273,0.0,4.0,63,0.00,,SKC,0.00,VWS V12.07,2014-01-07 00:04:00,
2014-01-06 18:10:00,-4.7,-13.8,30.57,WSW,250,1.0,4.0,64,0.00,,SKC,0.00,VWS V12.07,2014-01-07 00:10:00,
2014-01-06 18:16:00,-4.7,-13.8,30.57,WSW,239,1.0,5.0,64,0.00,,SKC,0.00,VWS V12.07,2014-01-07 00:16:00,
2014-01-06 18:23:00,-4.6,-13.4,30.58,WSW,245,2.0,9.0,65,0.00,,SKC,0.00,VWS V12.07,2014-01-07 00:23:00,
2014-01-06 18:28:00,-4.5,-13.3,30.58,West,277,9.0,9.0,65,0.00,,SKC,0.00,VWS V12.07,2014-01-07 00:28:00,
2014-01-06 18:35:00,-4.4,-13.2,30.58,WSW,257,2.0,9.0,65,0.00,,SKC,0.00,VWS V12.07,2014-01-07 00:35:00,
2014-01-06 18:41:00,-4.3,-13.1,30.58,WNW,290,5.0,10.0,65,0.00,,SKC,0.00,VWS V12.07,2014-01-07 00:41:00,
2014-01-06 18:47:00,-4.2,-13.0,30.58,WNW,283,4.0,10.0,65,0.00,,SKC,0.00,VWS V12.07,2014-01-07 00:47:00,
2014-01-06 18:52:00,-4.2,-13.0,30.58,WSW,253,5.0,10.0,65,0.00,,SKC,0.00,VWS V12.07,2014-01-07 00:52:00,
2014-01-06 18:58:00,-4.2,-13.0,30.58,WSW,243,2.0,10.0,65,0.00,,SKC,0.00,VWS V12.07,2014-01-07 00:58:00,
2014-01-06 19:05:00,-4.4,-13.2,30.58,WNW,290,3.0,6.0,65,0.00,,SKC,0.00,VWS V12.07,2014-01-07 01:05:00,
2014-01-06 19:12:00,-4.4,-13.2,30.58,WSW,257,3.0,8.0,65,0.00,,SKC,0.00,VWS V12.07,2014-01-07 01:12:00,
2014-01-06 19:19:00,-4.6,-13.1,30.58,SW,229,3.0,8.0,66,0.00,,SKC,0.00,VWS V12.07,2014-01-07 01:19:00,
2014-01-06 19:26:00,-4.7,-13.1,30.58,West,267,2.0,8.0,66,0.00,,SKC,0.00,VWS V12.07,2014-01-07 01:26:00,
2014-01-06 19:32:00,-4.7,-13.1,30.58,WSW,239,3.0,3.0,66,0.00,,SKC,0.00,VWS V12.07,2014-01-07 01:32:00,
2014-01-06 19:39:00,-4.8,-13.2,30.58,WNW,284,1.0,6.0,66,0.00,,SKC,0.00,VWS V12.07,2014-01-07 01:39:00,
2014-01-06 19:45:00,-4.9,-13.3,30.58,WNW,290,3.0,6.0,66,0.00,,SKC,0.00,VWS V12.07,2014-01-07 01:45:00,
2014-01-06 19:50:00,-5.0,-13.4,30.58,West,281,1.0,6.0,66,0.00,,SKC,0.00,VWS V12.07,2014-01-07 01:50:00,
2014-01-06 19:57:00,-5.2,-13.3,30.58,SSE,148,1.0,6.0,67,0.00,,SKC,0.00,VWS V12.07,2014-01-07 01:57:00,
2014-01-06 20:03:00,-5.4,-13.5,30.57,WNW,293,0.0,4.0,67,0.00,,SKC,0.00,VWS V12.07,2014-01-07 02:03:00,
2014-01-06 20:10:00,-5.5,-13.6,30.58,West,259,2.0,4.0,67,0.00,,SKC,0.00,VWS V12.07,2014-01-07 02:10:00,
2014-01-06 20:16:00,-5.7,-13.5,30.58,West,276,1.0,5.0,68,0.00,,SKC,0.00,VWS V12.07,2014-01-07 02:16:00,
2014-01-06 20:22:00,-5.8,-13.6,30.58,WNW,285,4.0,5.0,68,0.00,,SKC,0.00,VWS V12.07,2014-01-07 02:22:00,
2014-01-06 20:29:00,-5.8,-13.6,30.57,SW,233,2.0,5.0,68,0.00,,SKC,0.00,VWS V12.07,2014-01-07 02:29:00,
2014-01-06 20:34:00,-5.9,-13.7,30.57,SW,231,4.0,4.0,68,0.00,,SKC,0.00,VWS V12.07,2014-01-07 02:34:00,
2014-01-06 20:41:00,-6.1,-13.9,30.57,WSW,243,1.0,4.0,68,0.00,,SKC,0.00,VWS V12.07,2014-01-07 02:41:00,
2014-01-06 20:47:00,-6.2,-13.7,30.57,West,269,0.0,4.0,69,0.00,,SKC,0.00,VWS V12.07,2014-01-07 02:47:00,
2014-01-06 20:54:00,-6.2,-13.7,30.57,WSW,238,4.0,8.0,69,0.00,,SKC,0.00,VWS V12.07,2014-01-07 02:54:00,
2014-01-06 20:59:00,-6.1,-13.6,30.57,WSW,257,3.0,8.0,69,0.00,,SKC,0.00,VWS V12.07,2014-01-07 02:59:00,
2014-01-06 21:07:00,-6.1,-13.6,30.57,West,280,4.0,6.0,69,0.00,,SKC,0.00,VWS V12.07,2014-01-07 03:07:00,
2014-01-06 21:12:00,-6.0,-13.5,30.57,SW,231,6.0,7.0,69,0.00,,SKC,0.00,VWS V12.07,2014-01-07 03:12:00,
2014-01-06 21:19:00,-5.8,-13.3,30.57,West,267,4.0,8.0,69,0.00,,SKC,0.00,VWS V12.07,2014-01-07 03:19:00,
2014-01-06 21:24:00,-5.7,-13.2,30.57,WSW,256,0.0,8.0,69,0.00,,SKC,0.00,VWS V12.07,2014-01-07 03:24:00,
2014-01-06 21:31:00,-5.5,-13.0,30.57,West,262,6.0,8.0,69,0.00,,SKC,0.00,VWS V12.07,2014-01-07 03:31:00,
2014-01-06 21:36:00,-5.4,-12.9,30.57,WSW,245,10.0,10.0,69,0.00,,SKC,0.00,VWS V12.07,2014-01-07 03:36:00,
2014-01-06 21:43:00,-5.3,-12.8,30.57,WNW,289,3.0,10.0,69,0.00,,SKC,0.00,VWS V12.07,2014-01-07 03:43:00,
2014-01-06 21:50:00,-5.2,-13.0,30.57,West,259,2.0,10.0,68,0.00,,SKC,0.00,VWS V12.07,2014-01-07 03:50:00,
2014-01-06 21:57:00,-5.2,-12.7,30.57,West,269,3.0,10.0,69,0.00,,SKC,0.00,VWS V12.07,2014-01-07 03:57:00,
2014-01-06 22:03:00,-5.1,-12.6,30.57,WSW,238,4.0,7.0,69,0.00,,SKC,0.00,VWS V12.07,2014-01-07 04:03:00,
2014-01-06 22:09:00,-5.0,-12.8,30.57,West,269,4.0,10.0,68,0.00,,SKC,0.00,VWS V12.07,2014-01-07 04:09:00,
2014-01-06 22:16:00,-5.0,-12.8,30.57,WSW,250,2.0,10.0,68,0.00,,SKC,0.00,VWS V12.07,2014-01-07 04:16:00,
2014-01-06 22:23:00,-4.9,-12.4,30.56,WNW,284,1.0,10.0,69,0.00,,SKC,0.00,VWS V12.07,2014-01-07 04:23:00,
2014-01-06 22:30:00,-4.8,-12.4,30.56,WSW,248,3.0,10.0,69,0.00,,SKC,0.00,VWS V12.07,2014-01-07 04:30:00,
2014-01-06 22:35:00,-4.7,-12.3,30.56,SW,231,5.0,7.0,69,0.00,,SKC,0.00,VWS V12.07,2014-01-07 04:35:00,
2014-01-06 22:41:00,-4.7,-12.3,30.56,WNW,284,3.0,9.0,69,0.00,,SKC,0.00,VWS V12.07,2014-01-07 04:41:00,
2014-01-06 22:48:00,-4.6,-12.2,30.55,West,278,2.0,9.0,69,0.00,,SKC,0.00,VWS V12.07,2014-01-07 04:48:00,
2014-01-06 22:53:00,-4.5,-11.8,30.55,West,262,3.0,10.0,70,0.00,,SKC,0.00,VWS V12.07,2014-01-07 04:53:00,
2014-01-06 22:59:00,-4.4,-11.7,30.55,West,273,1.0,10.0,70,0.00,,SKC,0.00,VWS V12.07,2014-01-07 04:59:00,
2014-01-06 23:02:00,-4.4,-11.7,30.56,SW,221,1.0,8.0,70,0.00,,SKC,0.00,VWS V12.07,2014-01-07 05:02:00,
2014-01-06 23:05:00,-4.3,-11.6,30.56,West,259,3.0,8.0,70,0.00,,SKC,0.00,VWS V12.07,2014-01-07 05:05:00,
2014-01-06 23:08:00,-4.3,-11.6,30.55,WNW,299,0.0,8.0,70,0.00,,SKC,0.00,VWS V12.07,2014-01-07 05:08:00,
2014-01-06 23:15:00,-4.3,-11.6,30.55,West,280,0.0,8.0,70,0.00,,SKC,0.00,VWS V12.07,2014-01-07 05:15:00,
2014-01-06 23:20:00,-4.3,-11.6,30.55,West,276,2.0,8.0,70,0.00,,SKC,0.00,VWS V12.07,2014-01-07 05:20:00,
2014-01-06 23:24:00,-4.3,-11.6,30.55,West,266,3.0,8.0,70,0.00,,SKC,0.00,VWS V12.07,2014-01-07 05:24:00,
2014-01-06 23:27:00,-4.4,-11.7,30.54,West,261,0.0,8.0,70,0.00,,SKC,0.00,VWS V12.07,2014-01-07 05:27:00,
2014-01-06 23:42:00,-5.1,-12.1,30.55,WSW,248,0.0,4.0,71,0.00,,SKC,0.00,VWS V12.07,2014-01-07 05:42:00,
2014-01-06 23:49:00,-5.4,-12.4,30.55,SW,224,0.0,4.0,71,0.00,,SKC,0.00,VWS V12.07,2014-01-07 05:49:00,
2014-01-06 23:54:00,-5.8,-12.8,30.55,WSW,256,0.0,4.0,71,0.00,,SKC,0.00,VWS V12.07,2014-01-07 05:54:00,